Time,TemperatureF,DewpointF,PressureIn,WindDirection,WindDirectionDegrees,WindSpeedMPH,WindSpeedGustMPH,Humidity,HourlyPrecipIn,Conditions,Clouds,dailyrainin,SolarRadiationWatts/m^2,SoftwareType,DateUTC
2013-09-04 00:00:00,55.0,53.0,-100.00,South,180,0.0,-999.0,91,-99.99,,,-99.99,0.000000,,2013-09-04 04:00:00,
2013-09-04 00:44:00,55.0,53.0,-100.00,South,180,0.0,-999.0,91,-99.99,,,-99.99,0.000000,,2013-09-04 04:44:00,
2013-09-04 00:54:00,55.0,53.0,-100.00,South,180,0.0,-999.0,91,-99.99,,,-99.99,0.000000,,2013-09-04 04:54:00,
2013-09-04 01:00:00,55.0,53.0,-100.00,SSW,202,0.0,-999.0,92,-99.99,,,-99.99,0.000000,,2013-09-04 05:00:00,
2013-09-04 01:43:00,55.0,53.0,-100.00,SSW,202,0.0,-999.0,92,-99.99,,,-99.99,0.000000,,2013-09-04 05:43:00,
2013-09-04 01:53:00,55.0,53.0,-100.00,SSW,202,0.0,-999.0,92,-99.99,,,-99.99,0.000000,,2013-09-04 05:53:00,
2013-09-04 02:00:00,56.0,54.0,-100.00,South,180,1.0,-999.0,92,-99.99,,,-99.99,0.000000,,2013-09-04 06:00:00,
2013-09-04 02:42:00,56.0,54.0,-100.00,South,180,1.0,-999.0,92,-99.99,,,-99.99,0.000000,,2013-09-04 06:42:00,
2013-09-04 02:52:00,56.0,54.0,-100.00,South,180,1.0,-999.0,92,-99.99,,,-99.99,0.000000,,2013-09-04 06:52:00,
2013-09-04 03:00:00,55.0,53.0,-100.00,South,180,1.0,-999.0,91,-99.99,,,-99.99,0.000000,,2013-09-04 07:00:00,
2013-09-04 03:42:00,55.0,53.0,-100.00,South,180,1.0,-999.0,91,-99.99,,,-99.99,0.000000,,2013-09-04 07:42:00,
2013-09-04 03:52:00,55.0,53.0,-100.00,South,180,1.0,-999.0,91,-99.99,,,-99.99,0.000000,,2013-09-04 07:52:00,
2013-09-04 04:00:00,55.0,52.0,-100.00,South,180,1.0,-999.0,89,-99.99,,,-99.99,0.000000,,2013-09-04 08:00:00,
2013-09-04 04:43:00,55.0,52.0,-100.00,South,180,1.0,-999.0,89,-99.99,,,-99.99,0.000000,,2013-09-04 08:43:00,
2013-09-04 04:52:00,55.0,52.0,-100.00,South,180,1.0,-999.0,89,-99.99,,,-99.99,0.000000,,2013-09-04 08:52:00,
2013-09-04 05:00:00,55.0,51.0,-100.00,South,180,1.0,-999.0,87,-99.99,,,-99.99,0.000000,,2013-09-04 09:00:00,
2013-09-04 05:43:00,55.0,51.0,-100.00,South,180,1.0,-999.0,87,-99.99,,,-99.99,0.000000,,2013-09-04 09:43:00,
2013-09-04 05:53:00,55.0,51.0,-100.00,South,180,1.0,-999.0,87,-99.99,,,-99.99,0.000000,,2013-09-04 09:53:00,
2013-09-04 06:00:00,55.0,51.0,-100.00,SSW,202,1.0,-999.0,85,-99.99,,,-99.99,0.000000,,2013-09-04 10:00:00,
2013-09-04 06:42:00,55.0,51.0,-100.00,SSW,202,1.0,-999.0,85,-99.99,,,-99.99,0.000000,,2013-09-04 10:42:00,
2013-09-04 06:52:00,55.0,51.0,-100.00,SSW,202,1.0,-999.0,85,-99.99,,,-99.99,0.000000,,2013-09-04 10:52:00,
2013-09-04 08:00:00,56.0,52.0,-100.00,SW,225,1.0,-999.0,87,-99.99,,,-99.99,29.000000,,2013-09-04 12:00:00,
2013-09-04 08:42:00,56.0,52.0,-100.00,SW,225,1.0,-999.0,87,-99.99,,,-99.99,29.000000,,2013-09-04 12:42:00,
2013-09-04 08:52:00,56.0,52.0,-100.00,SW,225,1.0,-999.0,87,-99.99,,,-99.99,29.000000,,2013-09-04 12:52:00,
2013-09-04 09:00:00,59.0,54.0,-100.00,WSW,247,1.0,-999.0,83,-99.99,,,-99.99,157.759995,,2013-09-04 13:00:00,
2013-09-04 09:42:00,59.0,54.0,-100.00,WSW,247,1.0,-999.0,83,-99.99,,,-99.99,157.759995,,2013-09-04 13:42:00,
2013-09-04 09:52:00,59.0,54.0,-100.00,WSW,247,1.0,-999.0,83,-99.99,,,-99.99,157.759995,,2013-09-04 13:52:00,
2013-09-04 10:00:00,64.0,58.0,-100.00,West,270,3.0,-999.0,80,-99.99,,,-99.99,298.119995,,2013-09-04 14:00:00,
2013-09-04 10:42:00,64.0,58.0,-100.00,West,270,3.0,-999.0,80,-99.99,,,-99.99,298.119995,,2013-09-04 14:42:00,
2013-09-04 10:52:00,64.0,58.0,-100.00,West,270,3.0,-999.0,80,-99.99,,,-99.99,298.119995,,2013-09-04 14:52:00,
2013-09-04 11:00:00,69.0,59.0,-100.00,West,270,5.0,-999.0,71,-99.99,,,-99.99,447.760010,,2013-09-04 15:00:00,
2013-09-04 11:44:00,69.0,59.0,-100.00,West,270,5.0,-999.0,71,-99.99,,,-99.99,447.760010,,2013-09-04 15:44:00,
2013-09-04 11:53:00,69.0,59.0,-100.00,West,270,5.0,-999.0,71,-99.99,,,-99.99,447.760010,,2013-09-04 15:53:00,
2013-09-04 12:00:00,73.0,58.0,-100.00,WNW,292,5.0,-999.0,59,-99.99,,,-99.99,573.039978,,2013-09-04 16:00:00,
2013-09-04 12:43:00,73.0,58.0,-100.00,WNW,292,5.0,-999.0,59,-99.99,,,-99.99,573.039978,,2013-09-04 16:43:00,
2013-09-04 12:53:00,73.0,58.0,-100.00,WNW,292,5.0,-999.0,59,-99.99,,,-99.99,573.039978,,2013-09-04 16:53:00,
2013-09-04 13:00:00,75.0,55.0,-100.00,WNW,292,6.0,-999.0,50,-99.99,,,-99.99,667.000000,,2013-09-04 17:00:00,
2013-09-04 13:42:00,75.0,55.0,-100.00,WNW,292,6.0,-999.0,50,-99.99,,,-99.99,667.000000,,2013-09-04 17:42:00,
2013-09-04 13:53:00,75.0,55.0,-100.00,WNW,292,6.0,-999.0,50,-99.99,,,-99.99,667.000000,,2013-09-04 17:53:00,
2013-09-04 14:00:00,77.0,54.0,-100.00,WNW,292,6.0,-999.0,44,-99.99,,,-99.99,723.840027,,2013-09-04 18:00:00,
2013-09-04 14:42:00,77.0,54.0,-100.00,WNW,292,6.0,-999.0,44,-99.99,,,-99.99,723.840027,,2013-09-04 18:42:00,
2013-09-04 14:52:00,77.0,54.0,-100.00,WNW,292,6.0,-999.0,44,-99.99,,,-99.99,723.840027,,2013-09-04 18:52:00,
2013-09-04 15:00:00,78.0,52.0,-100.00,WNW,292,6.0,-999.0,40,-99.99,,,-99.99,698.320007,,2013-09-04 19:00:00,
2013-09-04 15:42:00,78.0,52.0,-100.00,WNW,292,6.0,-999.0,40,-99.99,,,-99.99,698.320007,,2013-09-04 19:42:00,
2013-09-04 15:53:00,78.0,52.0,-100.00,WNW,292,6.0,-999.0,40,-99.99,,,-99.99,698.320007,,2013-09-04 19:53:00,
2013-09-04 16:00:00,78.0,52.0,-100.00,NW,315,6.0,-999.0,40,-99.99,,,-99.99,568.400024,,2013-09-04 20:00:00,
2013-09-04 16:43:00,78.0,52.0,-100.00,NW,315,6.0,-999.0,40,-99.99,,,-99.99,568.400024,,2013-09-04 20:43:00,
2013-09-04 16:53:00,78.0,52.0,-100.00,NW,315,6.0,-999.0,40,-99.99,,,-99.99,568.400024,,2013-09-04 20:53:00,
2013-09-04 17:00:00,76.0,52.0,-100.00,WNW,292,4.0,-999.0,42,-99.99,,,-99.99,415.279999,,2013-09-04 21:00:00,
2013-09-04 17:44:00,76.0,52.0,-100.00,WNW,292,4.0,-999.0,42,-99.99,,,-99.99,415.279999,,2013-09-04 21:44:00,
2013-09-04 17:54:00,76.0,52.0,-100.00,WNW,292,4.0,-999.0,42,-99.99,,,-99.99,415.279999,,2013-09-04 21:54:00,
2013-09-04 18:00:00,75.0,52.0,-100.00,WNW,292,4.0,-999.0,44,-99.99,,,-99.99,292.320007,,2013-09-04 22:00:00,
2013-09-04 18:43:00,75.0,52.0,-100.00,WNW,292,4.0,-999.0,44,-99.99,,,-99.99,292.320007,,2013-09-04 22:43:00,
2013-09-04 18:55:00,75.0,52.0,-100.00,WNW,292,4.0,-999.0,44,-99.99,,,-99.99,292.320007,,2013-09-04 22:55:00,
2013-09-04 19:00:00,76.0,52.0,-100.00,NW,315,4.0,-999.0,42,-99.99,,,-99.99,308.559998,,2013-09-04 23:00:00,
2013-09-04 19:42:00,76.0,52.0,-100.00,NW,315,4.0,-999.0,42,-99.99,,,-99.99,308.559998,,2013-09-04 23:42:00,
2013-09-04 19:52:00,76.0,52.0,-100.00,NW,315,4.0,-999.0,42,-99.99,,,-99.99,308.559998,,2013-09-04 23:52:00,
2013-09-04 20:00:00,74.0,52.0,-100.00,WNW,292,1.0,-999.0,46,-99.99,,,-99.99,89.320000,,2013-09-05 00:00:00,
2013-09-04 20:43:00,74.0,52.0,-100.00,WNW,292,1.0,-999.0,46,-99.99,,,-99.99,89.320000,,2013-09-05 00:43:00,
2013-09-04 20:52:00,74.0,52.0,-100.00,WNW,292,1.0,-999.0,46,-99.99,,,-99.99,89.320000,,2013-09-05 00:52:00,
2013-09-04 21:00:00,68.0,51.0,-100.00,NW,315,0.0,-999.0,53,-99.99,,,-99.99,1.160000,,2013-09-05 01:00:00,
2013-09-04 21:42:00,68.0,51.0,-100.00,NW,315,0.0,-999.0,53,-99.99,,,-99.99,1.160000,,2013-09-05 01:42:00,
2013-09-04 21:52:00,68.0,51.0,-100.00,NW,315,0.0,-999.0,53,-99.99,,,-99.99,1.160000,,2013-09-05 01:52:00,
2013-09-04 22:00:00,65.0,51.0,-100.00,WSW,247,0.0,-999.0,61,-99.99,,,-99.99,0.000000,,2013-09-05 02:00:00,
2013-09-04 22:52:00,65.0,51.0,-100.00,WSW,247,0.0,-999.0,61,-99.99,,,-99.99,0.000000,,2013-09-05 02:52:00,
2013-09-04 23:00:00,61.0,53.0,-100.00,ESE,112,2.0,-999.0,75,-99.99,,,-99.99,0.000000,,2013-09-05 03:00:00,
2013-09-04 23:45:00,61.0,53.0,-100.00,ESE,112,2.0,-999.0,75,-99.99,,,-99.99,0.000000,,2013-09-05 03:45:00,
2013-09-04 23:54:00,61.0,53.0,-100.00,ESE,112,2.0,-999.0,75,-99.99,,,-99.99,0.000000,,2013-09-05 03:54:00,